sat.trackr.live / text

‹ back to catalog

STARLINK-33824

NORAD 63766 · 2025-089R

PAYLOAD ACTIVE UNKNOWN

§ Identity

Operator
Country
US
Launch date
2025-04-29
Launch site
AFETR
Launch vehicle
Mass (kg)
RCS (m²)

Purposes: comms

External: N2YO · Heavens-Above · Gunter

§ Orbital elements

Epoch: 2026-05-24T20:49:26.942016Z

Period
94.27 min
Inclination
43.0013°
Eccentricity
0.0001956
Mean motion
15.27601870 rev/d
Perigee alt
481.6 km
Apogee alt
484.3 km
Semi-major
6,861.1 km
B*
4.3417e-4
RAAN
335.3992°
Arg perigee
261.6743°
Mean anomaly
98.3887°
Rev number
6,060

§ Raw data

STARLINK-338241 63766U 25089R   26144.86767294  .00011712  00000+0  43417-3 0  99912 63766  43.0013 335.3992 0001956 261.6743  98.3887 15.27601870 60607

JSON: /api/v1/satellites/63766 · /tle

For live sub-satellite position, see the globe view (requires WebGL).

§ Visibility from observer

Set your observer location to see the next 7 days of passes ≥ 10°. The values pass through the URL so the page stays shareable.

No JS? Fill the form by hand. The geolocation button needs JavaScript.